Location: Banska Bystrica
(0.0000°N, 19.1500°E)
Time: 10:36:49
(UTC+01:00)

GPS 2-15 Rocket1 - Pass Details

Date: 19 February 2019
Orbit: 624 x 675 km, 19.8° (Epoch: 18 March)

Event Time Altitude Azimuth Distance (km) Brightness Sun altitude
Rises 18:49:24 0° 280° (W) 2,964 7.9 -12.8°
Reaches altitude 10° 18:51:52 10° 275° (W) 2,045 7.0 -13.4°
Maximum altitude 18:56:30 47° 201° (SSW) 849 4.0 -14.5°
Enters shadow 19:00:35 13° 129° (SE) 1,847 5.1 -15.5°
